RH
96 100 96 82 89 95 87 91 69 64 66 100 89 100 100 100 98 82 65 42 56 52 51 55 52 33 32 30 28 34 41 44 44 56 68 91 85 77 85 72 73 99 92 100
74 77 99 96 99 100 96 86 76 78 72 87 100 100 100 100 100 100 85 67 62 54 49 80 58 52 28 30 34 30 32 40 46 46 59 85 100 86 99 100 100 86 73 78
59 72 76 77 77 70 89 98 100 83 89 100 100 100 100 100 100 99 97 85 68 61 56 81 97 82 44 29 30 35 35 31 35 52 69 76 89 99 100 100 100 100 100 100
31 54 49 65 67 66 66 100 92 96 100 100 100 100 100 94 100 100 100 92 82 65 60 64 94 96 73 39 40 34 41 40 38 59 80 97 100 100 100 100 95 83 66 52
22 21 25 30 38 55 56 61 92 75 82 98 100 100 100 100 100 100 100 98 87 76 64 62 100 100 100 67 52 45 36 40 44 39 39 44 47 49 51 46 44 41 42 39
19 16 16 26 36 47 57 51 84 95 88 71 78 65 98 100 100 100 100 100 98 91 85 80 96 100 100 88 72 63 53 44 36 48 51 56 55 57 50 46 43 48 48 49
13 12 12 25 34 36 38 45 84 84 84 100 85 63 92 96 96 100 100 100 100 100 94 71 84 100 100 100 98 84 78 64 55 49 42 44 40 38 40 42 43 45 44 43
10 10 14 22 23 29 25 29 46 46 70 100 100 93 81 72 90 89 100 95 99 100 100 95 86 100 100 100 100 100 99 92 68 64 71 60 51 46 42 45 52 58 63 61
10 11 14 16 17 20 22 24 32 42 55 93 99 100 99 83 94 100 100 100 100 100 100 97 80 91 100 100 100 100 100 100 99 84 86 80 78 75 62 49 55 62 68 68
11 19 16 15 15 20 20 23 29 31 40 60 81 82 93 100 92 98 100 100 100 100 98 89 83 80 100 100 100 100 100 100 100 100 86 85 89 81 80 78 77 71 64 64
13 17 16 19 22 20 21 36 33 28 29 33 52 67 84 97 99 100 100 100 100 100 100 100 97 90 100 100 100 100 100 100 95 99 100 92 84 76 84 89 89 80 69 59
20 19 32 47 40 34 32 46 64 41 39 49 44 42 41 45 58 74 98 100 92 100 100 100 100 100 100 100 100 100 100 100 100 97 100 98 78 70 67 86 96 93 82 61
23 22 38 39 41 47 59 56 34 37 33 32 44 53 72 100 100 100 100 100 94 100 100 100 100 92 90 100 100 100 100 100 100 100 83 69 68 76 86 100 100 95 75 67
28 33 40 42 40 41 42 38 45 39 39 76 100 100 100 100 100 100 100 98 94 100 100 100 100 100 100 100 100 100 100 100 96 80 82 83 87 85 100 98 91 82 75 66
32 31 30 30 41 51 50 45 46 65 100 100 100 94 99 99 72 82 96 99 93 98 96 100 100 100 100 100 100 100 100 100 100 100 99 94 85 100 95 92 99 84 62 58
36 28 30 32 40 62 44 45 56 98 94 96 100 97 85 99 99 97 100 91 91 93 96 100 100 100 100 100 100 100 100 100 100 99 93 90 83 82 98 100 96 68 68 83
29 32 28 28 45 62 78 37 37 48 66 99 100 100 100 95 88 86 76 91 100 100 100 100 100 100 100 100 100 100 100 83 80 74 70 88 93 100 100 98 65 70 86 100
23 26 26 25 32 44 68 40 50 68 96 98 92 98 96 98 100 100 82 94 100 100 100 100 85 90 86 70 81 95 82 73 76 94 98 99 98 96 78 70 82 99 100 99
23 24 23 24 33 47 52 47 54 91 82 93 89 94 97 100 94 97 100 91 79 67 66 72 92 86 69 82 76 75 96 95 92 94 95 91 75 72 84 94 100 100 91 82
21 24 30 36 42 48 78 45 76 78 89 85 82 97 94 93 97 97 88 89 93 98 100 100 100 92 84 80 83 89 94 96 83 64 72 81 82 88 100 100 99 82 79 70
26 28 30 33 38 41 45 49 52 60 74 80 94 95 97 98 100 100 100 100 100 98 99 99 99 100 100 100 99 91 78 79 72 72 76 84 96 98 93 81 74 72 58 45
31 35 39 36 40 53 56 52 65 76 82 84 80 83 90 93 89 87 86 85 80 82 84 86 90 90 84 81 82 79 73 73 76 77 78 78 74 64 60 56 48 39 29 23
44 44 42 42 42 40 47 59 70 76 73 59 63 73 72 72 70 63 57 59 63 66 67 69 70 70 68 66 69 71 66 61 63 62 56 52 50 45 41 31 22 19 20 19
31 30 33 42 49 57 67 75 72 68 61 59 62 61 61 62 57 54 52 49 50 51 47 45 46 49 52 51 48 50 52 48 45 42 37 36 33 24 19 18 17 15 12 9
39 44 49 48 46 46 48 52 52 49 48 51 52 52 52 52 51 46 43 42 42 40 36 34 35 37 37 36 36 35 33 30 30 26 20 18 18 17 15 11 8 6 5 4
62 61 61 60 60 59 58 56 55 55 55 55 52 49 45 40 36 35 34 33 31 30 28 27 27 28 28 26 25 23 21 19 19 17 15 12 8 6 5 4 4 4 3 3
63 58 56 55 54 52 49 45 41 36 32 28 26 25 24 22 22 22 22 23 23 24 25 25 24 23 21 18 16 15 13 10 7 5 4 4 4 4 3 3 3 2 2 2
Wind_Speed
84 82 84 82 78 76 70 60 61 50 51 54 52 45 38 34 37 38 39 44 40 35 29 33 31 29 25 23 23 29 32 32 32 39 42 46 47 54 56 52 53 57 60 64
92 92 90 86 78 75 75 70 67 54 52 53 57 51 42 41 41 34 37 37 36 36 28 33 31 31 30 25 20 23 30 32 31 35 40 45 52 54 54 56 60 65 65 70
95 95 98 94 87 85 82 74 67 63 59 57 57 55 47 42 41 41 33 33 29 31 32 31 33 32 35 36 28 25 25 25 29 34 41 47 49 54 61 63 64 65 69 72
86 91 96 84 92 90 87 82 77 67 64 62 59 59 52 45 41 44 38 42 39 27 32 34 34 35 34 34 31 31 31 30 31 34 39 41 43 46 50 54 56 60 60 54
84 79 80 77 81 89 92 80 76 75 71 69 68 65 55 54 47 45 47 44 41 35 29 36 36 38 36 31 30 34 34 34 34 31 33 38 41 43 45 48 49 51 54 56
78 78 73 55 76 90 90 76 82 80 78 71 77 70 60 64 58 46 49 47 46 39 39 35 38 41 40 36 32 40 42 37 36 41 38 37 43 47 48 50 53 55 56 56
71 75 59 62 77 76 79 73 86 84 82 78 75 68 69 69 68 61 53 54 51 50 49 38 40 42 44 43 42 44 48 46 41 41 43 43 47 46 50 54 59 61 63 64
66 68 56 68 71 73 68 69 78 78 80 81 80 73 71 71 67 62 59 61 58 54 49 47 44 45 48 47 48 48 49 48 48 47 48 50 53 54 55 56 57 59 63 67
65 56 62 68 66 61 66 66 71 77 76 81 83 82 75 73 68 64 68 61 58 51 50 51 49 51 51 51 49 53 53 51 52 52 53 57 58 58 61 63 65 67 68 70
58 54 60 64 63 63 62 59 68 69 72 77 84 85 80 77 74 70 66 62 59 56 57 58 53 55 56 57 55 53 53 54 56 56 60 62 63 64 66 68 71 74 74 74
52 59 62 62 60 61 59 62 60 59 59 60 63 71 79 78 77 78 77 71 68 63 59 59 58 57 61 61 61 59 60 57 59 61 63 66 67 71 71 74 77 81 81 81
54 60 58 61 63 61 59 58 61 56 53 56 59 63 65 68 72 71 68 68 65 60 63 67 65 61 63 65 65 65 66 64 63 65 67 71 74 76 78 81 85 87 88 87
54 60 61 64 63 63 64 66 64 56 54 50 45 43 44 49 59 62 64 63 59 63 66 68 71 67 68 69 67 69 69 68 68 71 73 77 81 82 84 86 90 91 92 92
51 58 64 67 67 66 66 63 59 55 44 41 40 47 54 55 61 62 63 64 65 67 72 73 72 72 68 71 72 73 74 76 75 79 82 83 85 87 87 92 93 95 97 96
53 56 60 66 68 68 65 61 58 49 48 49 51 54 61 62 57 59 62 66 66 68 71 70 65 66 71 75 77 79 79 78 80 82 83 85 86 88 92 94 97 99 101 102
53 54 55 60 61 66 63 61 56 54 57 54 52 53 54 56 63 63 66 64 65 61 62 61 66 71 71 72 74 75 76 79 82 86 88 92 93 94 96 100 101 106 105 104
52 52 52 54 60 64 68 62 57 50 49 53 57 59 58 57 58 59 58 55 61 68 63 62 69 75 72 72 75 77 82 85 87 91 95 94 96 96 101 104 108 104 106 108
49 51 51 51 59 67 69 58 47 49 51 56 60 62 63 63 64 66 60 60 66 70 74 77 75 78 79 80 81 83 87 90 94 94 93 95 99 103 103 107 105 107 110 113
45 47 47 48 53 58 57 53 48 52 54 59 60 61 61 68 70 71 73 71 70 70 70 71 73 78 82 85 88 89 89 91 93 95 97 100 102 104 106 107 109 113 118 118
39 39 41 44 48 52 56 50 51 52 56 62 57 59 64 65 69 79 78 77 77 75 76 78 83 86 88 89 91 92 92 93 98 102 100 102 106 109 109 113 117 121 119 121
35 34 36 41 49 54 54 53 54 55 54 53 59 64 66 66 67 69 73 77 80 82 84 86 86 87 87 91 93 98 102 101 103 106 107 107 108 111 115 119 119 121 122 124
30 31 34 39 46 48 52 53 54 55 57 62 63 64 68 72 76 78 80 81 82 84 86 88 90 91 94 96 98 101 104 105 106 108 109 110 112 112 113 117 120 121 122 120
35 39 42 45 49 53 54 54 57 59 63 66 67 69 72 74 76 80 81 82 84 86 88 90 93 95 98 100 101 103 104 105 105 107 108 110 112 114 118 119 118 118 115 113
41 42 44 47 50 54 57 60 63 66 68 71 73 75 77 79 80 81 84 85 87 89 90 92 94 96 97 99 100 102 104 106 107 109 111 114 115 115 114 113 110 109 108 107
41 44 48 52 55 59 62 64 67 70 72 74 76 78 80 82 83 84 85 86 88 89 90 92 94 97 99 100 102 104 106 107 109 110 109 109 108 106 106 105 104 103 100 97
49 52 55 58 62 64 67 70 72 75 78 80 82 83 84 83 84 85 87 89 90 91 93 95 97 99 101 101 102 103 103 103 102 103 102 102 101 100 98 96 94 91 89 88
56 58 61 64 67 69 72 74 75 76 77 78 78 80 81 82 83 85 87 89 92 93 94 95 96 97 98 97 96 97 97 97 96 95 94 92 91 89 87 86 85 84 82 81
Wind_Direction
252 253 257 259 259 261 260 262 265 257 253 252 252 252 258 263 268 279 284 291 296 299 303 308 317 321 307 294 297 285 275 267 255 258 256 255 255 254 256 260 265 270 262 258
252 253 252 253 255 257 257 257 258 253 250 254 253 251 250 258 264 263 279 281 292 297 302 300 304 309 311 317 311 298 276 267 262 258 260 261 263 263 265 266 267 271 273 271
250 251 251 253 255 253 253 251 254 254 244 246 251 252 250 255 257 262 267 273 278 290 295 293 295 303 307 309 320 315 303 286 273 266 263 262 262 262 264 267 270 270 270 271
253 253 252 252 251 253 252 246 249 244 240 242 243 247 247 250 255 255 260 271 280 283 293 292 292 293 300 303 311 312 305 295 284 270 264 263 263 262 263 265 267 269 272 273
251 247 248 247 250 251 251 249 248 249 243 236 239 241 247 252 254 253 255 268 274 283 282 288 282 281 286 292 297 302 301 293 286 281 267 258 257 260 262 266 271 273 275 276
246 247 243 241 242 243 247 247 251 251 252 247 242 243 243 251 253 253 256 269 275 275 286 273 275 274 276 281 283 289 294 292 292 283 274 271 277 272 272 272 275 277 281 285
243 245 239 230 235 238 240 240 243 245 245 246 246 244 244 250 253 252 258 263 272 276 280 273 268 270 269 269 270 282 285 285 286 289 288 292 292 296 291 289 287 288 287 288
236 239 235 231 232 232 240 239 239 240 240 241 245 244 244 247 251 257 252 262 270 274 276 278 266 264 266 264 267 270 274 279 283 286 287 290 292 298 299 302 303 301 299 297
236 233 233 234 234 234 234 236 236 238 237 238 241 245 249 249 248 252 258 263 262 257 267 270 271 261 265 267 269 270 272 275 279 283 287 290 291 295 299 302 304 305 302 302
235 230 232 234 233 230 233 235 237 238 239 239 241 244 246 250 251 252 254 256 258 267 271 269 267 258 260 261 267 269 270 272 278 282 287 289 292 296 298 300 303 305 302 302
230 228 229 230 232 230 230 234 242 239 239 241 241 243 245 249 251 252 255 258 260 262 264 261 260 257 257 261 265 269 272 275 280 284 287 288 292 296 298 299 301 303 303 303
226 226 224 225 229 231 233 234 237 240 241 244 246 246 246 247 251 256 254 256 260 254 253 254 257 260 257 260 265 270 273 276 278 281 284 288 292 296 298 297 300 301 302 303
227 227 221 225 228 230 230 233 238 241 243 242 239 245 247 247 246 252 254 253 249 247 250 254 256 258 259 258 264 268 270 273 276 279 284 288 291 294 294 296 297 299 301 302
225 226 223 225 227 231 235 239 241 246 241 241 250 252 252 247 247 248 246 248 245 245 249 254 257 258 261 263 262 264 267 271 276 281 284 288 289 292 292 294 296 298 301 300
225 227 226 226 226 228 233 237 240 238 236 237 244 246 244 245 245 246 248 249 247 249 253 255 254 258 261 262 263 267 271 275 279 282 283 285 288 290 290 293 295 297 299 299
226 228 227 230 228 231 236 235 235 237 236 241 249 245 242 245 251 252 252 251 254 256 257 253 255 256 258 264 268 271 274 276 278 281 285 286 288 290 291 295 297 298 300 303
226 229 231 228 225 230 235 237 240 240 244 244 243 241 245 248 248 248 247 246 247 250 251 253 258 260 260 264 268 270 273 276 279 281 284 285 287 290 291 292 293 298 301 302
228 230 232 230 230 229 230 236 235 235 232 239 237 239 243 242 244 252 250 248 249 252 251 254 259 261 265 266 267 271 274 277 282 284 286 288 289 289 290 293 297 299 299 299
230 231 231 231 225 225 231 232 229 229 229 232 237 238 244 244 246 247 251 256 258 259 259 258 260 263 265 268 272 276 277 278 282 285 285 285 286 289 292 295 296 296 296 296
235 233 233 235 232 229 232 230 230 231 232 235 240 246 248 252 253 250 254 258 259 263 264 264 266 268 271 274 276 278 281 282 283 285 286 286 288 291 292 293 293 294 294 295
233 229 229 231 231 230 232 229 230 232 236 242 246 247 249 250 252 254 256 259 262 265 267 269 272 272 273 275 277 279 282 283 284 286 288 289 289 289 290 291 292 293 292 293
226 229 232 232 228 228 230 232 236 240 244 246 247 250 251 252 255 257 260 264 265 266 268 270 272 273 276 278 279 280 281 284 286 288 288 288 289 289 290 290 290 291 293 295
225 226 227 228 231 233 237 240 242 245 248 251 254 256 258 259 261 263 265 267 268 270 272 273 274 275 276 278 280 282 283 285 286 287 287 288 289 290 289 291 293 294 295 296
233 234 234 236 238 239 241 243 247 250 254 256 258 261 263 265 267 269 270 272 272 273 274 275 276 278 279 281 282 283 284 285 287 288 288 288 290 291 292 293 294 295 296 297
246 245 245 247 247 248 250 252 254 257 260 262 264 265 267 270 271 272 273 274 276 277 278 279 280 281 282 284 285 285 286 287 287 289 290 290 291 292 293 294 295 296 297 297
253 254 254 255 254 255 258 260 261 263 264 266 267 269 271 273 274 275 277 278 279 281 283 284 285 285 286 286 286 286 287 288 289 290 290 291 292 293 294 295 296 297 297 298
259 260 261 262 263 263 264 265 267 269 270 271 272 274 276 278 280 282 283 284 286 286 286 285 285 285 286 287 287 287 288 289 289 290 292 293 294 295 296 297 297 298 299 299